Hourly Weather Kozyrevo

Today, 24 October, Saturday

Time Temperature Precipitation Wind Pressure Humidity
00:00 +7°C° 0 mm 4 mps 733 mmHg 91%
01:00 +8°C° 0 mm 3 mps 734 mmHg 93%
02:00 +7°C° 0 mm 3 mps 734 mmHg 94%
03:00 +7°C° 0 mm 3 mps 734 mmHg 94%
04:00 +7°C° 0 mm 3 mps 734 mmHg 95%
05:00 +5°C° 0 mm 3 mps 734 mmHg 95%
06:00 +7°C° 0 mm 3 mps 734 mmHg 94%
07:00 +7°C° 0 mm 2 mps 734 mmHg 94%
08:00 +7°C° 0 mm 2 mps 735 mmHg 93%
09:00 +8°C° 0 mm 2 mps 735 mmHg 89%
10:00 +9°C° 0 mm 2 mps 735 mmHg 85%
11:00 +10°C° 0 mm 3 mps 735 mmHg 81%
12:00 +10°C° 0.1 mm 3 mps 735 mmHg 82%
13:00 +10°C° 0.1 mm 3 mps 735 mmHg 83%
14:00 +10°C° 0.1 mm 3 mps 735 mmHg 84%
15:00 +9°C° 0.8 mm 2 mps 734 mmHg 88%
16:00 +8°C° 0.8 mm 2 mps 734 mmHg 92%
17:00 +8°C° 0.8 mm 2 mps 734 mmHg 96%
18:00 +8°C° 0.3 mm 2 mps 734 mmHg 96%
19:00 +8°C° 0.3 mm 2 mps 734 mmHg 96%
20:00 +8°C° 0.3 mm 2 mps 734 mmHg 96%
21:00 +7°C° 0 mm 2 mps 735 mmHg 96%
22:00 +7°C° 0 mm 2 mps 735 mmHg 95%
23:00 +7°C° 0 mm 3 mps 735 mmHg 95%

Tomorrow, 25 October, Sunday

Time Temperature Precipitation Wind Pressure Humidity
00:00 +5°C° 0 mm 3 mps 735 mmHg 96%
01:00 +5°C° 0 mm 3 mps 735 mmHg 96%
02:00 +4°C° 0 mm 3 mps 736 mmHg 97%
03:00 +5°C° 0.1 mm 3 mps 736 mmHg 96%
04:00 +5°C° 0.1 mm 3 mps 736 mmHg 95%
05:00 +7°C° 0.1 mm 3 mps 736 mmHg 94%
06:00 +7°C° 0 mm 3 mps 736 mmHg 93%
07:00 +7°C° 0 mm 3 mps 737 mmHg 93%
08:00 +8°C° 0 mm 3 mps 737 mmHg 93%
09:00 +8°C° 0 mm 3 mps 738 mmHg 91%
10:00 +9°C° 0 mm 3 mps 738 mmHg 89%
11:00 +9°C° 0 mm 2 mps 739 mmHg 87%
12:00 +9°C° 0 mm 3 mps 739 mmHg 87%
13:00 +10°C° 0 mm 3 mps 739 mmHg 87%
14:00 +10°C° 0 mm 3 mps 740 mmHg 86%
15:00 +10°C° 0 mm 2 mps 740 mmHg 88%
16:00 +9°C° 0 mm 2 mps 740 mmHg 90%
17:00 +9°C° 0 mm 2 mps 740 mmHg 91%
18:00 +8°C° 0 mm 2 mps 741 mmHg 91%
19:00 +9°C° 0 mm 1 mps 741 mmHg 91%
20:00 +9°C° 0 mm 1 mps 742 mmHg 91%
21:00 +9°C° 0 mm 1 mps 742 mmHg 91%
22:00 +8°C° 0 mm 1 mps 742 mmHg 92%
23:00 +8°C° 0 mm 1 mps 742 mmHg 93%

Day after tomorrow, 26 October, Monday

Time Temperature Precipitation Wind Pressure Humidity
00:00 +8°C° 0 mm 1 mps 742 mmHg 93%
01:00 +7°C° 0 mm 1 mps 742 mmHg 93%
02:00 +7°C° 0 mm 1 mps 742 mmHg 94%
03:00 +7°C° 0 mm 1 mps 743 mmHg 94%
04:00 +8°C° 0 mm 1 mps 743 mmHg 94%
05:00 +8°C° 0 mm 1 mps 743 mmHg 95%
06:00 +8°C° 0 mm 1 mps 743 mmHg 94%
07:00 +7°C° 0 mm 2 mps 743 mmHg 94%
08:00 +7°C° 0 mm 2 mps 743 mmHg 94%
09:00 +8°C° 0 mm 2 mps 743 mmHg 91%
10:00 +9°C° 0 mm 2 mps 743 mmHg 88%
11:00 +10°C° 0 mm 3 mps 744 mmHg 85%
12:00 +10°C° 0 mm 3 mps 743 mmHg 83%
13:00 +10°C° 0 mm 3 mps 743 mmHg 81%
14:00 +11°C° 0 mm 3 mps 743 mmHg 78%
15:00 +10°C° 0 mm 3 mps 743 mmHg 82%
16:00 +9°C° 0 mm 3 mps 743 mmHg 86%
17:00 +8°C° 0 mm 2 mps 743 mmHg 89%
18:00 +8°C° 0 mm 3 mps 743 mmHg 90%
19:00 +8°C° 0 mm 3 mps 743 mmHg 91%
20:00 +7°C° 0 mm 3 mps 743 mmHg 92%
21:00 +7°C° 0 mm 3 mps 743 mmHg 91%
22:00 +7°C° 0 mm 3 mps 743 mmHg 91%
23:00 +7°C° 0 mm 3 mps 743 mmHg 91%

, 27 October, Tuesday

Time Temperature Precipitation Wind Pressure Humidity
00:00 +7°C° 0 mm 3 mps 743 mmHg 92%
01:00 +7°C° 0 mm 3 mps 743 mmHg 93%
02:00 +5°C° 0 mm 4 mps 743 mmHg 93%
03:00 +5°C° 0 mm 4 mps 743 mmHg 93%
04:00 +5°C° 0 mm 4 mps 743 mmHg 94%
05:00 +5°C° 0 mm 4 mps 743 mmHg 94%
06:00 +5°C° 0 mm 4 mps 743 mmHg 93%
07:00 +5°C° 0 mm 4 mps 743 mmHg 92%
08:00 +6°C° 0 mm 4 mps 743 mmHg 91%
09:00 +7°C° 0 mm 5 mps 743 mmHg 86%
10:00 +8°C° 0 mm 5 mps 743 mmHg 81%
11:00 +9°C° 0 mm 5 mps 744 mmHg 75%
12:00 +10°C° 0 mm 5 mps 744 mmHg 74%
13:00 +10°C° 0 mm 5 mps 744 mmHg 72%
14:00 +12°C° 0 mm 5 mps 743 mmHg 70%
15:00 +10°C° 0 mm 5 mps 743 mmHg 74%
16:00 +10°C° 0 mm 4 mps 743 mmHg 79%
17:00 +8°C° 0 mm 4 mps 743 mmHg 83%
18:00 +8°C° 0 mm 4 mps 743 mmHg 84%
19:00 +7°C° 0 mm 4 mps 743 mmHg 84%
20:00 +7°C° 0 mm 4 mps 743 mmHg 85%
21:00 +7°C° 0 mm 4 mps 743 mmHg 85%
22:00 +7°C° 0 mm 4 mps 743 mmHg 84%
23:00 +6°C° 0 mm 4 mps 743 mmHg 84%

27 October, Tuesday

Time Temperature Precipitation Wind Pressure Humidity
00:00 +7°C° 0 mm 3 mps 743 mmHg 92%
01:00 +7°C° 0 mm 3 mps 743 mmHg 93%
02:00 +5°C° 0 mm 4 mps 743 mmHg 93%
03:00 +5°C° 0 mm 4 mps 743 mmHg 93%
04:00 +5°C° 0 mm 4 mps 743 mmHg 94%
05:00 +5°C° 0 mm 4 mps 743 mmHg 94%
06:00 +5°C° 0 mm 4 mps 743 mmHg 93%
07:00 +5°C° 0 mm 4 mps 743 mmHg 92%
08:00 +6°C° 0 mm 4 mps 743 mmHg 91%
09:00 +7°C° 0 mm 5 mps 743 mmHg 86%
10:00 +8°C° 0 mm 5 mps 743 mmHg 81%
11:00 +9°C° 0 mm 5 mps 744 mmHg 75%
12:00 +10°C° 0 mm 5 mps 744 mmHg 74%
13:00 +10°C° 0 mm 5 mps 744 mmHg 72%
14:00 +12°C° 0 mm 5 mps 743 mmHg 70%
15:00 +10°C° 0 mm 5 mps 743 mmHg 74%
16:00 +10°C° 0 mm 4 mps 743 mmHg 79%
17:00 +8°C° 0 mm 4 mps 743 mmHg 83%
18:00 +8°C° 0 mm 4 mps 743 mmHg 84%
19:00 +7°C° 0 mm 4 mps 743 mmHg 84%
20:00 +7°C° 0 mm 4 mps 743 mmHg 85%
21:00 +7°C° 0 mm 4 mps 743 mmHg 85%
22:00 +7°C° 0 mm 4 mps 743 mmHg 84%
23:00 +6°C° 0 mm 4 mps 743 mmHg 84%

28 October, Wednesday

Time Temperature Precipitation Wind Pressure Humidity
00:00 +6°C° 0 mm 4 mps 743 mmHg 84%
01:00 +6°C° 0 mm 4 mps 743 mmHg 85%
02:00 +5°C° 0 mm 4 mps 743 mmHg 85%
03:00 +5°C° 0 mm 4 mps 743 mmHg 86%
04:00 +5°C° 0 mm 4 mps 743 mmHg 87%
05:00 +4°C° 0 mm 4 mps 743 mmHg 87%
06:00 +5°C° 0 mm 4 mps 743 mmHg 87%
07:00 +5°C° 0 mm 4 mps 743 mmHg 86%
08:00 +5°C° 0 mm 5 mps 743 mmHg 85%
09:00 +6°C° 0 mm 5 mps 743 mmHg 82%
10:00 +7°C° 0 mm 5 mps 743 mmHg 78%
11:00 +8°C° 0 mm 5 mps 743 mmHg 74%
12:00 +9°C° 0 mm 5 mps 743 mmHg 74%
13:00 +9°C° 0 mm 5 mps 743 mmHg 73%
14:00 +10°C° 0 mm 5 mps 743 mmHg 72%
15:00 +10°C° 0 mm 4 mps 743 mmHg 75%
16:00 +8°C° 0 mm 4 mps 743 mmHg 78%
17:00 +7°C° 0 mm 4 mps 743 mmHg 81%
18:00 +7°C° 0 mm 4 mps 743 mmHg 82%
19:00 +7°C° 0 mm 4 mps 743 mmHg 82%
20:00 +6°C° 0 mm 4 mps 744 mmHg 82%
21:00 +6°C° 0 mm 4 mps 744 mmHg 83%
22:00 +5°C° 0 mm 3 mps 744 mmHg 84%
23:00 +5°C° 0 mm 3 mps 744 mmHg 84%

29 October, Thursday

Time Temperature Precipitation Wind Pressure Humidity
00:00 +5°C° 0 mm 3 mps 744 mmHg 85%
01:00 +4°C° 0 mm 3 mps 744 mmHg 85%
02:00 +4°C° 0 mm 3 mps 743 mmHg 85%
03:00 +4°C° 0 mm 3 mps 743 mmHg 86%
04:00 +3°C° 0 mm 3 mps 743 mmHg 86%
05:00 +3°C° 0 mm 3 mps 743 mmHg 86%
06:00 +3°C° 0 mm 3 mps 743 mmHg 84%
07:00 +3°C° 0 mm 3 mps 743 mmHg 83%
08:00 +3°C° 0 mm 4 mps 743 mmHg 81%
09:00 +4°C° 0 mm 4 mps 743 mmHg 76%
10:00 +5°C° 0 mm 4 mps 743 mmHg 70%
11:00 +6°C° 0 mm 4 mps 743 mmHg 65%
12:00 +8°C° 0 mm 3 mps 743 mmHg 64%
13:00 +8°C° 0 mm 3 mps 743 mmHg 63%
14:00 +8°C° 0 mm 3 mps 742 mmHg 62%
15:00 +7°C° 0 mm 3 mps 742 mmHg 66%
16:00 +5°C° 0 mm 3 mps 742 mmHg 70%
17:00 +4°C° 0 mm 3 mps 742 mmHg 75%
18:00 +4°C° 0 mm 3 mps 742 mmHg 75%
19:00 +4°C° 0 mm 3 mps 742 mmHg 76%
20:00 +4°C° 0 mm 3 mps 742 mmHg 77%
21:00 +4°C° 0 mm 3 mps 742 mmHg 78%
22:00 +4°C° 0 mm 2 mps 742 mmHg 79%
23:00 +4°C° 0 mm 2 mps 742 mmHg 80%
Show more